ORBCOMM-X 1 21576U 91050C 22146.19118940 .00000298 00000-0 10495-3 0 9995 2 21576 98.4817 211.9612 0002896 332.6863 27.4174 14.41764319620955 ORBCOMM FM 1 1 23545U 95017A 22145.88129887 .00003367 00000-0 53831-3 0 9998 2 23545 69.9701 293.9342 0006989 218.2434 141.8216 14.72694910447169 ORBCOMM FM 2 1 23546U 95017B 22146.52727643 .00003537 00000-0 57795-3 0 9997 2 23546 69.9720 309.7439 0008285 202.4262 157.6522 14.71687227446952 ORBCOMM FM 8 1 25112U 97084A 22146.45804894 .00001095 00000-0 39200-3 0 9998 2 25112 45.0167 301.0090 0007282 15.7788 344.3287 14.39661766280037 ORBCOMM FM 10 1 25113U 97084B 22146.44452464 .00001073 00000-0 38516-3 0 9995 2 25113 45.0181 302.6283 0004825 345.2050 14.8658 14.39649161455184 ORBCOMM FM 11 1 25114U 97084C 22146.41139683 .00001049 00000-0 37807-3 0 9993 2 25114 45.0165 302.3706 0005652 345.6006 14.4682 14.39568930280158 ORBCOMM FM 12 1 25115U 97084D 22146.44243387 .00001055 00000-0 37987-3 0 9990 2 25115 45.0173 301.8912 0004508 347.8744 12.1996 14.39589745280197 ORBCOMM FM 9 1 25116U 97084E 22146.16541651 .00001013 00000-0 36675-3 0 9992 2 25116 45.0174 303.7576 0005712 328.5697 31.4810 14.39576365280123 ORBCOMM FM 5 1 25117U 97084F 22146.46662607 .00001153 00000-0 40921-3 0 9995 2 25117 45.0177 302.3075 0002280 14.0443 346.0469 14.39797858280193 ORBCOMM FM 6 1 25118U 97084G 22146.45852125 .00001220 00000-0 43169-3 0 9993 2 25118 45.0169 302.0753 0001601 31.1768 3.6240 14.39645464280177 ORBCOMM FM 7 1 25119U 97084H 22146.49128819 .00001073 00000-0 38552-3 0 9990 2 25119 45.0165 302.2554 0002812 354.2194 5.8622 14.39629303280196 ORBCOMM FM 3 1 25158U 98007B 22145.51193923 .00000869 00000-0 38215-3 0 9997 2 25158 107.9931 6.2246 0048269 34.0196 326.4021 14.30035055263921 ORBCOMM FM 4 1 25159U 98007C 22146.19953177 .00000751 00000-0 33601-3 0 9992 2 25159 107.9910 10.0506 0043808 31.1969 329.1756 14.30320168264176 ORBCOMM FM 17 1 25413U 98046A 22146.36149587 .00000672 00000-0 30386-3 0 9998 2 25413 44.9947 113.6640 0002553 338.2041 21.8695 14.31326865242852 ORBCOMM FM 18 1 25414U 98046B 22146.16314310 .00000986 00000-0 40397-3 0 9996 2 25414 44.9964 54.9025 0003731 55.2212 304.8985 14.33504361243602 ORBCOMM FM 19 1 25415U 98046C 22146.16797671 .00000949 00000-0 39131-3 0 9995 2 25415 44.9971 55.6592 0003037 36.1647 78.7916 14.33438045243579 ORBCOMM FM 20 1 25416U 98046D 22146.16873122 .00000806 00000-0 34020-3 0 9996 2 25416 44.9969 56.0297 0001874 332.5012 27.5735 14.33382686243682 ORBCOMM FM 16 1 25417U 98046E 22146.35197715 .00001081 00000-0 43622-3 0 9999 2 25417 44.9969 54.1669 0002953 70.2522 289.8643 14.33721349243602 ORBCOMM FM 15 1 25418U 98046F 22146.22235231 .00000914 00000-0 37807-3 0 9994 2 25418 44.9999 57.4207 0002341 70.1759 66.8180 14.33522964243603 ORBCOMM FM 14 1 25419U 98046G 22146.15184883 .00001121 00000-0 45182-3 0 9999 2 25419 44.9991 57.3839 0002019 33.9933 109.4836 14.33561899243544 ORBCOMM FM 13 1 25420U 98046H 22146.15425910 .00000914 00000-0 37960-3 0 9994 2 25420 45.0001 59.7185 0003863 60.6787 299.4445 14.33308703242641 ORBCOMM FM 21 1 25475U 98053A 22146.39281902 .00000625 00000-0 27547-3 0 9998 2 25475 45.0081 142.3811 0002039 281.1722 78.8895 14.33357312236693 ORBCOMM FM 22 1 25476U 98053B 22146.38918665 .00000697 00000-0 30034-3 0 9995 2 25476 45.0077 141.4438 0002313 328.0156 32.0550 14.33533020236660 ORBCOMM FM 23 1 25477U 98053C 22146.40147057 .00000654 00000-0 28640-3 0 9991 2 25477 45.0084 144.5473 0001975 310.0298 50.0375 14.33255069236842 ORBCOMM FM 24 1 25478U 98053D 22146.43681024 .00000709 00000-0 30539-3 0 9993 2 25478 45.0081 144.4770 0001789 294.3957 65.6702 14.33411370236865 ORBCOMM FM 25 1 25479U 98053E 22146.40127981 .00000668 00000-0 29036-3 0 9992 2 25479 45.0073 142.9214 0001929 26.3040 333.7904 14.33423406237154 ORBCOMM FM 26 1 25480U 98053F 22146.36252159 .00000632 00000-0 27901-3 0 9995 2 25480 45.0068 135.2293 0003514 80.2717 279.8526 14.33171386237117 ORBCOMM FM 27 1 25481U 98053G 22146.36942648 .00000658 00000-0 28704-3 0 9995 2 25481 45.0056 143.2142 0002620 260.1858 99.8693 14.33378709237088 ORBCOMM FM 28 1 25482U 98053H 22146.20886697 .00000812 00000-0 33822-3 0 9999 2 25482 45.0079 85.3983 0001928 90.0235 270.0833 14.34002405237696 ORBCOMM FM 30 1 25980U 99065A 22146.17821120 .00000763 00000-0 32518-3 0 9998 2 25980 45.0337 320.8677 0006147 185.6881 174.3897 14.33302044174405 ORBCOMM FM 31 1 25981U 99065B 22146.43529483 .00000648 00000-0 28365-3 0 9992 2 25981 45.0248 314.0002 0003282 207.1991 152.8684 14.33334441173469 ORBCOMM FM 32 1 25982U 99065C 22146.18231514 .00000648 00000-0 28908-3 0 9993 2 25982 45.0184 323.7806 0005624 214.6799 145.3681 14.32362767174139 ORBCOMM FM 33 1 25983U 99065D 22146.43511003 .00000818 00000-0 32998-3 0 9999 2 25983 45.0300 250.0281 0010198 217.6567 186.3080 14.35579759175253 ORBCOMM FM 36 1 25984U 99065E 22146.50187577 .00000769 00000-0 32689-3 0 9995 2 25984 45.0387 322.7888 0003798 111.3734 248.7519 14.33379650173853 ORBCOMM FM 35 1 25985U 99065F 22146.51070191 .00000641 00000-0 28141-3 0 9997 2 25985 45.0418 324.2076 0002894 217.5822 142.4823 14.33331970174456 ORBCOMM FM 34 1 25986U 99065G 22146.44908035 .00000712 00000-0 30740-3 0 9994 2 25986 45.0412 324.7108 0003657 158.9974 201.1024 14.33251155174414 ORBCOMM FM 38 1 33060U 08031A 22146.40424069 .00001005 00000-0 18112-3 0 9990 2 33060 48.4420 205.6545 0006910 297.5593 62.4618 14.74201071749519 ORBCOMM FM 41 1 33061U 08031B 22146.28376078 .00001003 00000-0 18148-3 0 9990 2 33061 48.4455 211.4701 0006048 285.7902 103.5241 14.74031621749029 ORBCOMM FM 29 1 33062U 08031C 22146.41930302 .00000976 00000-0 17812-3 0 9997 2 33062 48.4408 218.4407 0007995 284.7218 164.8594 14.73850342748960 ORBCOMM FM 39 1 33063U 08031D 22146.46233152 .00001005 00000-0 18507-3 0 9998 2 33063 48.4424 234.5124 0008946 266.2336 93.7554 14.73197739748721 ORBCOMM FM 37 1 33064U 08031E 22146.27370972 .00000890 00000-0 16653-3 0 9991 2 33064 48.4417 225.8850 0007290 280.7125 120.7704 14.73434061748923 ORBCOMM FM 40 1 33065U 08031F 22146.45443447 .00001176 00000-0 20721-3 0 9999 2 33065 48.4441 219.1364 0008844 286.7551 169.9236 14.74071846748926 ORBCOMM FM 109 1 40086U 14040A 22146.39347198 .00000529 00000-0 15963-3 0 9999 2 40086 47.0038 239.8904 0002931 223.5906 136.4747 14.55079304418136 ORBCOMM FM 107 1 40087U 14040B 22146.34689145 .00000451 00000-0 14178-3 0 9997 2 40087 47.0057 240.8281 0002986 231.6699 128.3917 14.55077865418204 ORBCOMM FM 106 1 40088U 14040C 22146.38213146 .00000619 00000-0 14855-3 0 9994 2 40088 47.0605 144.3832 0020038 292.8980 66.9794 14.64785233419390 ORBCOMM FM 111 1 40089U 14040D 22146.38468566 .00001293 00000-0 20400-3 0 9995 2 40089 47.0055 124.2935 0036408 280.6793 79.0002 14.77903214424529 ORBCOMM FM 104 1 40090U 14040E 22146.37763043 .00000471 00000-0 15055-3 0 9991 2 40090 47.0061 262.0015 0017667 152.1342 208.0491 14.53687116417855 ORBCOMM FM 103 1 40091U 14040F 22146.37063972 .00000449 00000-0 14136-3 0 9990 2 40091 47.0062 241.0405 0002825 216.3913 143.6779 14.55074246401171 ORBCOMM FM 114 1 41179U 15081A 22146.41301706 .00000522 00000-0 15799-3 0 9997 2 41179 47.0017 150.4121 0003565 270.4210 89.6266 14.55096955341545 ORBCOMM FM 119 1 41180U 15081B 22146.16720851 .00000515 00000-0 15650-3 0 9995 2 41180 47.0027 60.7671 0002305 327.0177 33.0563 14.55077013342765 ORBCOMM FM 105 1 41181U 15081C 22146.45795813 .00000202 00000-0 10503-3 0 9993 2 41181 47.0028 323.1304 0001818 344.6384 15.4440 14.43564803339296 ORBCOMM FM 110 1 41182U 15081D 22146.04769203 .00000436 00000-0 13817-3 0 9993 2 41182 47.0003 151.6212 0000118 338.8685 21.2194 14.55096111341360 ORBCOMM FM 118 1 41183U 15081E 22146.16132604 .00000349 00000-0 11808-3 0 9997 2 41183 47.0024 151.2474 0000161 79.2389 280.8514 14.55094167341486 ORBCOMM FM 112 1 41184U 15081F 22146.14482985 .00000680 00000-0 19417-3 0 9998 2 41184 47.0004 60.2138 0002537 317.5548 42.5139 14.55081672342704 ORBCOMM FM 113 1 41185U 15081G 22146.12211003 .00000659 00000-0 18932-3 0 9995 2 41185 47.0026 60.4600 0002274 329.0219 31.0531 14.55086472342685 ORBCOMM FM 115 1 41186U 15081H 22146.47142163 .00000642 00000-0 17175-3 0 9994 2 41186 46.9999 297.2695 0000582 319.1374 40.9468 14.58941200344401 ORBCOMM FM 108 1 41187U 15081J 22146.49132127 .00000669 00000-0 19168-3 0 9999 2 41187 47.0058 329.7317 0002245 230.6366 129.4320 14.55084345343884 ORBCOMM FM 117 1 41188U 15081K 22145.77025897 .00000714 00000-0 20206-3 0 9991 2 41188 47.0021 332.2561 0002952 243.2187 116.8395 14.55093683343822 ORBCOMM FM 116 1 41189U 15081L 22146.16783117 .00000698 00000-0 19849-3 0 9994 2 41189 47.0031 60.1050 0002635 321.9468 38.1230 14.55081581342690